Bat Cave, NC

9:58 PM EST on February 07, 2016 (GMT -0500)
Asheville Regional

Weather History for KAVL - February, 2010

Change the Weather History Date:

Friday, February 12, 2010

  Actual Average Record
Temperature  
Mean Temperature 29 °F 40 °F  
Max Temperature 32 °F 50 °F 73 °F (1922)
Min Temperature 25 °F 29 °F 6 °F (1981)
Degree Days  
Heating Degree Days 36 25  
Month to date heating degree days 390 314  
Since 1 July heating degree days 3072 2841  
Cooling Degree Days 0 0  
Month to date cooling degree days 0 0  
Year to date cooling degree days 0 0  
Moisture  
Dew Point 22 °F    
Average Humidity 73    
Maximum Humidity 92    
Minimum Humidity 54    
Precipitation  
Precipitation 0.19 in 0.14 in 2.70 in (1873)
Month to date precipitation 2.88 1.59  
Year to date precipitation 9.88 5.26  
Snow  
Snow 2.80 in 0.00 in 7.10 in (2014)
Month to date snowfall 5.8 1.0  
Since 1 July snowfall 29.4 6.1  
Snow Depth 0.00 in    
Sea Level Pressure  
Sea Level Pressure 29.82 in    
Wind  
Wind Speed 7 mph (NNW)    
Max Wind Speed 21 mph    
Max Gust Speed 24 mph    
Visibility 4 miles    
Events Fog , Snow    
T = Trace of Precipitation, MM = Missing Value Source: NWS Daily Summary

Daily Weather History Graph

Daily Weather History Graph

Search for Another Location

Airport or City:

Trip Planner

Search our weather history database for the weather conditions in past years. The results will help you decide how hot, cold, wet, or windy it might be!

Date:

Astronomy

Feb. 12, 2010 Rise Set
Actual Time 7:19 AM EST 6:09 PM EST
Civil Twilight 6:53 AM EST 6:35 PM EST
Nautical Twilight 6:23 AM EST 7:05 PM EST
Astronomical Twilight 5:54 AM EST 7:35 PM EST
Moon 6:24 AM EST (2/12) 5:04 PM EST (2/12)
Length of Visible Light 11h 41m
Length of Day
10h 49m
Waning Crescent, 2% of the Moon is Illuminated
Feb 12
Waning Crescent
Feb 13
New
Feb 21
First Quarter
Feb 28
Full
Mar 7
Last Quarter

Hourly Weather History & Observations

Time (EST) Temp. Windchill Dew Point Humidity Pressure Visibility Wind Dir Wind Speed Gust Speed Precip Events Conditions
12:54 AM 26.1 °F 13.6 °F 18.0 °F 71% 29.97 in 10.0 mi NNW 16.1 mph 21.9 mph N/A   Clear
1:54 AM 26.1 °F 14.5 °F 19.0 °F 75% 29.97 in 10.0 mi NNW 13.8 mph - N/A   Clear
2:54 AM 26.1 °F 15.0 °F 18.0 °F 71% 29.96 in 10.0 mi NNW 12.7 mph 18.4 mph N/A   Clear
3:54 AM 26.1 °F 16.2 °F 18.0 °F 71% 29.95 in 10.0 mi North 10.4 mph - N/A   Mostly Cloudy
4:54 AM 26.1 °F 17.6 °F 18.0 °F 71% 29.95 in 10.0 mi North 8.1 mph - N/A   Partly Cloudy
5:54 AM 26.1 °F 19.4 °F 18.0 °F 71% 29.96 in 10.0 mi North 5.8 mph - N/A   Mostly Cloudy
6:54 AM 26.1 °F 17.6 °F 18.0 °F 71% 29.96 in 10.0 mi NNW 8.1 mph - N/A   Overcast
7:54 AM 26.1 °F 19.4 °F 19.0 °F 75% 29.96 in 10.0 mi NNW 5.8 mph - N/A   Overcast
8:54 AM 27.0 °F 23.0 °F 19.0 °F 72% 29.97 in 10.0 mi WNW 3.5 mph - N/A   Overcast
9:54 AM 28.9 °F - 19.0 °F 67% 29.94 in 10.0 mi Calm Calm - N/A   Overcast
10:54 AM 30.0 °F - 18.0 °F 61% 29.93 in 10.0 mi Calm Calm - N/A   Overcast
11:54 AM 30.9 °F - 18.0 °F 59% 29.88 in 10.0 mi Calm Calm - N/A   Mostly Cloudy
12:54 PM 32.0 °F 27.5 °F 18.0 °F 56% 29.88 in 10.0 mi South 4.6 mph - N/A   Overcast
1:43 PM 32.0 °F - 17.6 °F 55% 29.82 in 10.0 mi Calm Calm - N/A   Overcast
1:54 PM 32.0 °F - 19.0 °F 59% 29.86 in 10.0 mi Calm Calm - N/A   Overcast
2:15 PM 30.2 °F - 21.2 °F 69% 29.80 in 2.5 mi Calm Calm - 0.00 in Snow Light Snow
2:51 PM 28.4 °F 24.6 °F 24.8 °F 86% 29.78 in 1.5 mi SE 3.5 mph - 0.00 in Snow Light Snow
2:54 PM 28.9 °F 25.2 °F 24.1 °F 82% 29.82 in 1.5 mi ESE 3.5 mph - 0.00 in Snow Light Snow
3:06 PM 28.4 °F 23.3 °F 24.8 °F 86% 29.78 in 1.2 mi SSE 4.6 mph - 0.00 in Snow Light Snow
3:22 PM 28.4 °F - 24.8 °F 86% 29.77 in 1.0 mi Calm Calm - 0.01 in Snow Light Snow
3:40 PM 28.4 °F - 26.6 °F 93% 29.76 in 0.8 mi Calm Calm - 0.02 in Snow Light Snow
3:54 PM 28.0 °F - 26.1 °F 92% 29.80 in 0.8 mi Calm Calm - 0.03 in Snow Light Snow
4:00 PM 28.4 °F - 26.6 °F 93% 29.76 in 1.0 mi Calm Calm - 0.00 in Snow Light Snow
4:11 PM 28.4 °F - 26.6 °F 93% 29.76 in 1.0 mi Calm Calm - 0.00 in Snow Light Snow
4:18 PM 28.4 °F - 26.6 °F 93% 29.76 in 0.8 mi Calm Calm - 0.01 in Snow Light Snow
4:54 PM 28.0 °F - 26.1 °F 92% 29.80 in 0.5 mi Calm Calm - 0.03 in Fog , Snow Snow
5:01 PM 28.4 °F - 24.8 °F 86% 29.76 in 0.5 mi Calm Calm - 0.00 in Fog , Snow Snow
5:54 PM 28.0 °F - 26.1 °F 92% 29.80 in 0.5 mi Calm Calm - 0.05 in Fog , Snow Snow
6:32 PM 28.4 °F 20.4 °F 26.6 °F 93% 29.75 in 1.0 mi NNW 8.1 mph - 0.04 in Snow Light Snow
6:54 PM 28.0 °F 18.6 °F 26.1 °F 92% 29.79 in 1.2 mi NNW 10.4 mph - 0.05 in Snow Light Snow
7:05 PM 28.4 °F 17.0 °F 24.8 °F 86% 29.75 in 1.5 mi NNW 15.0 mph - 0.00 in Snow Light Snow
7:38 PM 26.6 °F 15.2 °F 24.8 °F 93% 29.75 in 1.2 mi NNW 13.8 mph - N/A Snow Light Snow
7:54 PM 27.0 °F 17.3 °F 25.0 °F 92% 29.79 in 1.5 mi NNW 10.4 mph - 0.01 in Snow Light Snow
8:22 PM 26.6 °F 17.5 °F 24.8 °F 93% 29.75 in 1.2 mi NNW 9.2 mph - 0.01 in Snow Light Snow
8:46 PM 26.6 °F 16.2 °F 24.8 °F 93% 29.74 in 1.2 mi North 11.5 mph - 0.01 in Snow Light Snow
8:54 PM 26.1 °F 15.6 °F 24.1 °F 92% 29.78 in 1.2 mi NNW 11.5 mph - 0.01 in Snow Light Snow
9:28 PM 26.6 °F 13.4 °F 23.0 °F 86% 29.74 in 1.2 mi NNW 18.4 mph - 0.01 in Snow Light Snow
9:37 PM 26.6 °F 13.8 °F 23.0 °F 86% 29.74 in 1.5 mi NNW 17.3 mph - 0.01 in Snow Light Snow
9:54 PM 25.0 °F 11.3 °F 21.9 °F 88% 29.78 in 2.0 mi NNW 18.4 mph - 0.01 in Snow Light Snow
10:10 PM 24.8 °F 13.4 °F 21.2 °F 86% 29.75 in 2.0 mi NNW 12.7 mph - 0.00 in Snow Light Snow
10:19 PM 24.8 °F 12.9 °F 21.2 °F 86% 29.75 in 2.5 mi NNW 13.8 mph - 0.00 in Snow Light Snow
10:37 PM 24.8 °F 13.4 °F 21.2 °F 86% 29.74 in 3.0 mi NNW 12.7 mph - 0.00 in Snow Light Snow
10:46 PM 24.8 °F 12.9 °F 21.2 °F 86% 29.75 in 4.0 mi NNW 13.8 mph - 0.00 in Snow Light Snow
10:54 PM 25.0 °F 12.6 °F 21.9 °F 88% 29.79 in 4.0 mi NNW 15.0 mph - 0.00 in Snow Light Snow
11:54 PM 25.0 °F 14.8 °F 19.9 °F 81% 29.80 in 10.0 mi NNW 10.4 mph - 0.00 in   Overcast